Weather History for Joliet, IL

Change the Weather History Date:

Thursday, September 26, 2013

  Actual Average (KLOT) Record (KLOT)
Temperature  
Mean Temperature 62 °F 61 °F  
Max Temperature 79 °F 72 °F 93 °F (1998)
Min Temperature 45 °F 50 °F 37 °F (2000)
Degree Days  
Heating Degree Days 3 6  
Month to date heating degree days 65  
Since 1 July heating degree days 73  
Cooling Degree Days 0 2  
Month to date cooling degree days 89  
Year to date cooling degree days 842  
Growing Degree Days 12 (Base 50)    
Moisture  
Dew Point 48 °F    
Average Humidity 66    
Maximum Humidity 98    
Minimum Humidity 24    
Precipitation  
Precipitation 0.00 in 0.09 in 1.68 in (1996)
Month to date precipitation 2.78  
Year to date precipitation 30.60  
Sea Level Pressure  
Sea Level Pressure 30.05 in    
Wind  
Wind Speed 2 mph (ESE)    
Max Wind Speed 9 mph    
Max Gust Speed -    
Visibility 7 miles    
Events Fog    
T = Trace of Precipitation, MM = Missing Value Source: NWS Daily Summary

Daily Weather History Graph

Daily Weather History Graph

Search for Another Location

Airport:

Trip Planner

Search our weather history database for the weather conditions in past years. The results will help you decide how hot, cold, wet, or windy it might be!

Date:

Astronomy

Sep. 26, 2013 Rise Set
Actual Time 6:44 AM CDT 6:42 PM CDT
Civil Twilight 6:16 AM CDT 7:10 PM CDT
Nautical Twilight 5:44 AM CDT 7:42 PM CDT
Astronomical Twilight 5:11 AM CDT 8:15 PM CDT
Moon 11:37 PM CDT (9/26) 1:40 PM CDT (9/26)
Length of Visible Light 12h 53m
Length of Day
11h 58m
Waning Gibbous, 54% of the Moon is Illuminated
Sep 26
Waning Gibbous
Sep 26
Last Quarter
Oct 4
New
Oct 11
First Quarter
Oct 18
Full

Hourly Weather History & Observations

Time (CDT) Temp. Dew Point Humidity Pressure Visibility Wind Dir Wind Speed Gust Speed Precip Events Conditions
12:15 AM 54.5 °F 50.5 °F 86% 29.97 in 5.0 mi Calm Calm - N/A   Clear
12:35 AM 51.4 °F 48.9 °F 91% 29.97 in 4.0 mi Calm Calm - N/A   Clear
12:55 AM 52.9 °F 50.9 °F 93% 29.97 in 4.0 mi Calm Calm - N/A   Clear
1:15 AM 53.4 °F 51.1 °F 92% 29.97 in 4.0 mi Calm Calm - N/A   Clear
1:35 AM 51.3 °F 49.8 °F 95% 29.98 in 2.0 mi Calm Calm - N/A   Clear
1:55 AM 49.6 °F 48.0 °F 94% 29.99 in 3.0 mi Calm Calm - N/A   Clear
2:15 AM 48.2 °F 46.8 °F 95% 29.99 in 2.0 mi Calm Calm - N/A   Clear
2:35 AM 47.3 °F 46.0 °F 95% 30.00 in 1.0 mi Calm Calm - N/A   Mist
2:55 AM 48.4 °F 47.5 °F 97% 30.00 in 0.2 mi Calm Calm - N/A Fog Fog
3:15 AM 50.0 °F 49.3 °F 97% 30.00 in 1.0 mi Calm Calm - N/A   Mist
3:35 AM 48.0 °F 47.3 °F 97% 30.01 in 0.5 mi Calm Calm - N/A Fog Fog
3:55 AM 48.9 °F 48.2 °F 97% 30.01 in 1.2 mi Calm Calm - N/A   Mist
4:15 AM 48.6 °F 47.8 °F 97% 30.02 in 1.0 mi Calm Calm - N/A   Mist
4:35 AM 47.7 °F 46.9 °F 97% 30.02 in 1.0 mi Calm Calm - N/A   Mist
4:55 AM 46.2 °F 45.5 °F 97% 30.02 in 1.5 mi Calm Calm - N/A   Mist
5:15 AM 46.8 °F 46.0 °F 97% 30.02 in 1.0 mi Calm Calm - N/A   Mist
5:35 AM 47.7 °F 46.8 °F 97% 30.03 in 1.0 mi Calm Calm - N/A   Mist
5:55 AM 47.5 °F 46.8 °F 97% 30.04 in 1.5 mi Calm Calm - N/A   Mist
6:15 AM 47.8 °F 47.1 °F 97% 30.04 in 0.8 mi Calm Calm - N/A   Mist
6:35 AM 45.7 °F 45.0 °F 97% 30.04 in 1.5 mi Calm Calm - N/A   Mist
6:55 AM 46.4 °F 45.7 °F 97% 30.06 in 1.2 mi Calm Calm - N/A   Mist
7:15 AM 48.2 °F 47.5 °F 97% 30.06 in 1.8 mi Calm Calm - N/A   Mist
7:35 AM 49.3 °F 48.7 °F 98% 30.07 in 3.0 mi Calm Calm - N/A   Clear
7:55 AM 52.9 °F 52.2 °F 97% 30.07 in 4.0 mi Calm Calm - N/A   Clear
8:15 AM 55.8 °F 52.5 °F 89% 30.08 in 7.0 mi Calm Calm - N/A   Clear
8:35 AM 59.7 °F 54.1 °F 82% 30.08 in 7.0 mi East 3.5 mph - N/A   Clear
8:55 AM 61.3 °F 53.6 °F 76% 30.08 in 10.0 mi ESE 5.8 mph - N/A   Clear
9:15 AM 62.8 °F 53.6 °F 72% 30.08 in 10.0 mi ESE 4.6 mph - N/A   Clear
9:35 AM 64.4 °F 53.6 °F 68% 30.09 in 10.0 mi East 5.8 mph - N/A   Clear
9:55 AM 65.8 °F 53.8 °F 65% 30.08 in 10.0 mi ESE 3.5 mph - N/A   Clear
10:15 AM 67.8 °F 53.6 °F 60% 30.08 in 10.0 mi ESE 4.6 mph - N/A   Clear
10:35 AM 69.4 °F 53.1 °F 56% 30.08 in 10.0 mi East 6.9 mph - N/A   Clear
10:55 AM 70.5 °F 50.5 °F 49% 30.08 in 10.0 mi East 8.1 mph - N/A   Clear
11:15 AM 71.1 °F 50.5 °F 48% 30.08 in 10.0 mi East 6.9 mph - N/A   Clear
11:35 AM 72.1 °F 49.6 °F 45% 30.08 in 10.0 mi East 5.8 mph - N/A   Clear
11:55 AM 73.2 °F 48.2 °F 41% 30.08 in 10.0 mi East 5.8 mph - N/A   Clear
12:15 PM 73.8 °F 45.9 °F 37% 30.07 in 10.0 mi ESE 4.6 mph - N/A   Clear
12:35 PM 74.3 °F 45.7 °F 36% 30.07 in 10.0 mi East 4.6 mph - N/A   Clear
12:55 PM 75.2 °F 44.6 °F 34% 30.07 in 10.0 mi East 6.9 mph - N/A   Clear
1:15 PM 75.0 °F 43.9 °F 33% 30.06 in 10.0 mi East 6.9 mph - N/A   Clear
1:35 PM 75.2 °F 43.3 °F 32% 30.06 in 10.0 mi Calm Calm - N/A   Clear
1:55 PM 76.3 °F 43.7 °F 31% 30.05 in 10.0 mi East 3.5 mph - N/A   Clear
2:15 PM 77.2 °F 43.3 °F 30% 30.04 in 10.0 mi Calm Calm - N/A   Clear
2:35 PM 77.4 °F 43.2 °F 30% 30.04 in 10.0 mi East 6.9 mph - N/A   Clear
2:55 PM 78.1 °F 43.3 °F 29% 30.04 in 10.0 mi East 6.9 mph - N/A   Clear
3:15 PM 78.4 °F 43.5 °F 29% 30.04 in 10.0 mi ESE 4.6 mph - N/A   Clear
3:35 PM 78.8 °F 43.5 °F 29% 30.04 in 10.0 mi Calm Calm - N/A   Clear
3:55 PM 79.0 °F 42.8 °F 28% 30.04 in 10.0 mi ESE 4.6 mph - N/A   Clear
4:15 PM 78.8 °F 39.0 °F 24% 30.03 in 10.0 mi SE 4.6 mph - N/A   Clear
4:35 PM 78.8 °F 39.2 °F 24% 30.04 in 10.0 mi SE 3.5 mph - N/A   Clear
4:55 PM 78.8 °F 40.6 °F 26% 30.04 in 10.0 mi ESE 4.6 mph - N/A   Clear
5:15 PM 78.4 °F 41.2 °F 26% 30.04 in 10.0 mi ESE 3.5 mph - N/A   Clear
5:35 PM 77.9 °F 41.7 °F 27% 30.04 in 10.0 mi ESE 5.8 mph - N/A   Clear
5:55 PM 76.3 °F 41.5 °F 29% 30.04 in 10.0 mi SE 4.6 mph - N/A   Clear
6:15 PM 73.6 °F 43.2 °F 34% 30.04 in 10.0 mi ESE 4.6 mph - N/A   Clear
6:35 PM 71.8 °F 51.6 °F 49% 30.05 in 10.0 mi East 9.2 mph - N/A   Clear
6:55 PM 70.2 °F 53.1 °F 55% 30.05 in 10.0 mi East 8.1 mph - N/A   Clear
7:15 PM 67.6 °F 53.4 °F 60% 30.06 in 10.0 mi East 5.8 mph - N/A   Clear
7:35 PM 65.7 °F 53.2 °F 64% 30.06 in 10.0 mi East 6.9 mph - N/A   Clear
7:55 PM 65.5 °F 53.1 °F 64% 30.06 in 10.0 mi East 4.6 mph - N/A   Clear
8:15 PM 64.4 °F 53.1 °F 67% 30.07 in 10.0 mi East 6.9 mph - N/A   Clear
8:35 PM 63.7 °F 52.7 °F 67% 30.07 in 10.0 mi East 6.9 mph - N/A   Clear
8:55 PM 63.3 °F 51.6 °F 66% 30.08 in 10.0 mi East 6.9 mph - N/A   Clear
9:15 PM 62.6 °F 50.9 °F 66% 30.08 in 10.0 mi East 5.8 mph - N/A   Clear
9:35 PM 61.7 °F 50.7 °F 67% 30.09 in 10.0 mi East 6.9 mph - N/A   Clear
9:55 PM 61.0 °F 50.5 °F 68% 30.09 in 10.0 mi East 4.6 mph - N/A   Clear
10:15 PM 60.3 °F 50.7 °F 71% 30.09 in 10.0 mi East 3.5 mph - N/A   Clear
10:35 PM 60.8 °F 51.3 °F 71% 30.09 in 10.0 mi Calm Calm - N/A   Clear
10:55 PM 59.0 °F 52.0 °F 78% 30.09 in 10.0 mi East 4.6 mph - N/A   Clear
11:15 PM 58.1 °F 52.7 °F 82% 30.09 in 10.0 mi East 4.6 mph - N/A   Clear
11:35 PM 59.4 °F 53.4 °F 81% 30.09 in 10.0 mi East 5.8 mph - N/A   Clear
11:55 PM 59.0 °F 52.7 °F 80% 30.10 in 10.0 mi East 3.5 mph - N/A   Clear